Dewpoint
-16 -6 -8 -7 -9 -12 -12 -13 -13 1 2 4 0 2 11 12 13 15 12 13 12 12 11 8 8 8 7 9 10 10 8 7 5 5 5 4 4 3 3 3 3 3 1 1 2 1 0 -0 1
-7 -8 -7 -8 -10 -10 -12 -14 -7 -3 6 4 7 9 9 12 13 14 13 15 13 12 14 10 9 8 8 9 10 10 9 8 8 8 6 6 4 3 2 5 2 1 1 2 1 1 1 3 3
-16 -9 -8 -9 -9 -7 -8 -11 -5 7 7 7 9 9 11 12 12 13 14 15 14 13 13 10 9 9 9 9 9 10 10 9 9 7 6 6 6 3 1 2 4 2 2 2 3 3 5 7 7
-9 -10 -9 -6 -5 -6 -5 -2 5 7 8 8 9 12 12 13 13 14 15 15 14 15 13 9 9 9 9 9 9 8 8 8 7 7 6 6 7 4 2 1 0 1 1 1 2 2 1 2 3
-10 -11 -9 -7 -7 -1 3 3 6 8 9 9 9 11 12 14 13 14 14 15 15 15 14 10 9 10 10 10 10 9 8 9 8 6 5 3 3 3 2 1 0 0 -0 0 0 0 -0 -0 -1
-12 -13 -8 -7 -6 3 4 5 6 8 11 10 9 12 12 14 13 14 15 15 15 15 14 11 10 10 10 10 10 9 9 9 8 7 7 5 2 2 1 1 1 0 -0 -1 -1 -1 -1 -1 -1
-9 -12 -9 -9 -8 5 5 6 7 7 10 10 11 12 13 13 13 15 15 14 15 15 14 13 12 10 10 10 10 9 8 8 7 7 5 5 4 5 5 5 5 4 3 2 2 1 1 1 0
-9 -11 -11 -11 -9 1 5 7 7 8 9 11 11 12 13 14 13 12 14 13 14 14 14 14 13 14 11 10 9 8 8 8 7 8 8 8 8 10 9 7 8 9 8 8 8 8 8 7 2
-9 -9 -9 -11 -11 -5 6 7 8 8 10 11 11 11 11 12 11 12 13 14 14 14 14 14 14 14 12 8 9 6 7 7 7 7 7 11 13 13 13 11 10 11 11 11 11 11 11 10 11
-8 -8 -10 -14 -12 -7 7 6 8 10 10 10 11 12 11 10 10 12 12 13 13 14 14 13 14 13 13 12 12 12 11 11 11 12 12 12 12 12 13 12 11 11 11 11 11 11 13 12 13
-9 -9 -12 -13 -10 -4 6 4 7 8 9 10 11 12 11 10 9 8 8 9 10 11 12 13 14 12 13 12 11 10 11 12 12 7 12 12 13 12 13 13 13 12 12 12 12 12 11 11 11
-8 -11 -13 -12 -7 -0 2 3 7 7 8 10 12 12 11 10 10 9 9 10 10 12 12 12 11 12 12 12 12 13 13 13 13 12 12 12 13 12 13 13 13 13 13 12 12 12 12 11 12
-9 -11 -12 -7 -2 -2 0 3 5 9 11 12 12 12 11 11 11 10 10 12 12 12 12 12 12 11 9 11 11 12 12 12 12 12 12 12 12 12 12 12 12 12 12 11 12 12 11 12 12
-9 -10 -7 -2 0 1 3 4 8 12 12 12 12 11 11 11 10 10 11 12 12 12 12 12 12 12 12 12 12 12 12 12 12 12 11 11 10 7 10 10 9 9 9 9 9 9 9 11 11
-9 -8 -4 -1 -1 3 4 9 8 13 12 11 11 11 10 10 10 10 11 11 12 12 12 13 12 12 12 12 12 12 11 11 8 5 -1 -2 -0 2 6 7 7 6 5 5 4 4 6 9 9
-5 -4 -0 -3 2 3 4 6 10 12 11 11 11 10 10 10 10 10 10 10 10 11 10 11 12 12 12 11 10 7 3 3 4 3 -2 -2 -2 -1 2 4 -1 -2 -0 -1 1 4 6 9 7
-5 -3 -3 -3 1 3 4 0 8 10 10 11 11 10 10 10 10 10 9 10 8 9 9 9 8 7 5 3 2 0 -2 1 2 2 -1 -4 -4 -5 -4 -4 -5 -3 -3 -8 -2 5 7 8 7
-5 -6 -5 -1 1 1 4 1 7 9 10 10 10 10 10 10 10 9 10 11 10 10 10 9 6 4 3 2 -0 -1 -1 -1 2 0 -4 -5 -5 -5 -5 -10 -17 -14 -7 -15 -5 5 6 6 5
-9 -7 -8 -7 -0 1 2 0 6 7 8 9 9 9 9 9 8 7 6 7 8 7 6 4 5 5 5 3 1 -2 -3 -5 -5 -6 -7 -7 -9 -13 -15 -19 -19 -19 -23 -21 -3 -1 2 3 3
-9 -9 -6 -8 -1 1 -1 -0 2 5 7 7 8 8 8 7 6 6 6 6 8 9 7 8 7 7 6 6 6 4 -4 -6 -7 -9 -12 -15 -26 -34 -30 -27 -27 -11 -17 -25 -19 -3 -3 -3 -13
-8 -8 -5 -4 2 1 -0 0 2 3 5 6 7 7 6 7 7 7 7 7 7 9 9 8 8 6 5 4 1 -1 -5 -8 -10 -14 -21 -31 -34 -35 -34 -33 -32 -23 -16 -30 -28 -14 -4 -3 -9
-7 -8 -7 -6 1 2 -1 2 -0 2 4 6 6 6 6 6 6 6 6 6 6 8 9 9 7 6 5 3 0 -3 -3 -2 -3 -11 -27 -35 -35 -35 -34 -34 -33 -31 -32 -30 -28 -29 -20 -5 -3
-7 -9 -9 -8 -1 -2 -4 0 -3 -1 2 5 5 6 5 5 5 4 4 4 4 6 7 7 7 6 5 3 0 -2 -3 -6 -15 -28 -34 -34 -34 -35 -35 -33 -33 -33 -33 -33 -32 -31 -29 -26 -11
-10 -8 -6 -5 -2 3 -5 -2 -1 -1 1 1 3 5 5 4 4 4 4 4 3 5 7 7 7 6 5 3 1 -1 -5 -12 -20 -29 -29 -31 -34 -34 -34 -34 -34 -33 -33 -32 -32 -31 -30 -29 -19
-9 -6 0 2 4 3 -4 -2 -1 -5 -2 -0 1 2 3 4 4 4 3 3 2 3 5 7 6 5 5 4 2 -2 -5 -16 -25 -29 -31 -31 -31 -32 -33 -34 -33 -33 -33 -32 -32 -31 -30 -29 -27
-10 -6 -1 2 1 -0 -3 0 -2 -5 -4 -2 -1 -0 2 3 4 3 3 2 1 2 5 6 5 5 4 4 3 1 -6 -6 -6 -5 -10 -4 -11 -28 -33 -33 -33 -33 -33 -32 -31 -31 -28 -30 -29
-9 -5 -6 -3 -3 -1 -3 -3 -3 -4 -4 -4 -3 -1 0 2 3 3 3 2 1 2 3 4 4 3 4 4 3 -0 -2 -3 -3 -2 -2 -3 -17 -31 -31 -32 -33 -33 -33 -32 -31 -31 -29 -29 -25
-11 -9 -1 0 8 2 -1 -1 0 -2 -2 -3 -5 -4 -3 0 2 3 2 2 1 2 3 3 3 2 3 3 2 0 -2 -3 -1 -2 -2 -7 -20 -26 -31 -32 -32 -32 -32 -31 -27 -28 -30 -27 -25
-12 -7 -4 -3 -2 3 1 -1 -4 -3 -3 -3 -4 -4 -4 -2 1 2 2 2 1 2 2 3 2 2 2 3 2 0 -1 -2 -3 -4 -10 -16 -28 -29 -28 -30 -30 -30 -31 -31 -31 -29 -28 -25 -22
-15 -10 -6 6 6 4 5 3 -6 -6 -5 -4 -5 -5 -5 -2 1 2 2 2 2 2 2 2 1 1 2 2 0 -0 -1 -2 -2 -4 -12 -26 -28 -27 -26 -25 -26 -28 -31 -31 -30 -29 -29 -29 -27
Wind_Speed
7 7 5 7 7 8 16 15 7 6 6 5 9 4 18 20 9 9 18 13 17 15 13 14 14 13 13 13 13 11 9 9 9 9 9 9 8 8 8 7 7 8 9 10 9 9 9 9 9
5 7 7 13 9 13 10 5 4 6 14 8 11 7 7 8 13 17 19 16 18 14 14 14 15 13 13 12 11 10 8 7 7 7 7 8 8 8 8 7 6 6 6 6 7 7 7 7 7
6 8 12 10 14 14 9 9 6 13 9 13 5 11 10 11 15 10 16 20 17 16 16 14 15 13 12 11 10 8 7 6 5 5 5 6 6 6 6 6 6 5 5 5 5 5 5 5 5
5 9 12 10 16 9 6 8 11 11 8 6 9 10 10 6 8 11 19 18 19 16 16 16 15 13 12 10 9 8 6 5 5 5 4 4 4 5 5 5 4 4 3 3 3 3 3 2 2
12 15 12 14 18 7 2 1 9 9 10 7 12 11 9 9 14 16 22 16 17 16 14 17 15 13 11 9 8 7 6 6 5 4 4 3 3 4 4 4 3 3 2 1 1 2 2 3 3
14 19 13 17 19 12 7 7 10 10 5 6 6 16 9 14 17 16 18 16 16 16 18 16 15 13 11 10 8 7 6 5 4 3 3 3 3 3 3 3 2 2 2 1 2 3 4 4 5
17 13 17 20 18 13 8 9 11 9 11 11 14 10 12 14 17 16 17 16 15 17 15 14 13 13 10 8 6 5 4 4 3 2 2 2 2 2 2 2 2 3 3 4 4 5 6 6 6
21 15 20 21 18 10 14 12 12 14 9 16 14 8 13 20 18 17 16 16 17 17 17 16 12 11 9 7 6 4 4 3 2 2 2 2 2 1 1 1 1 3 4 4 5 5 6 7 7
16 15 16 23 15 7 20 15 14 10 17 11 7 7 20 23 21 18 17 16 14 14 14 16 16 12 8 7 6 4 4 3 1 1 2 4 2 3 7 4 3 3 4 5 6 7 7 8 7
17 14 23 20 18 11 21 18 16 13 15 12 10 17 25 24 22 19 17 16 14 12 13 14 13 15 9 8 6 5 4 3 3 2 1 1 4 4 4 5 4 5 6 6 6 5 5 4 10
22 20 20 20 9 11 21 17 16 16 13 16 15 23 25 23 20 18 16 15 14 12 10 12 12 11 9 8 7 5 3 3 1 4 3 3 3 2 2 5 4 5 5 8 7 7 7 10 11
18 25 27 9 8 7 14 20 17 11 4 19 19 24 23 22 19 17 15 15 14 14 16 15 15 14 14 9 8 5 5 5 4 3 5 6 4 7 6 4 7 8 7 9 10 11 12 12 10
19 15 15 5 8 19 18 18 15 11 12 23 24 22 21 21 17 16 14 13 15 16 14 13 12 10 10 10 6 4 3 4 5 5 6 7 9 11 11 12 12 11 5 5 5 4 5 4 8
17 23 12 12 16 14 13 11 10 14 20 23 25 22 21 20 19 17 14 13 12 10 13 10 8 7 7 6 4 4 4 4 6 8 10 10 7 8 4 5 5 5 6 5 5 6 3 4 6
10 15 14 15 17 11 20 12 13 20 21 23 23 22 21 20 19 18 16 13 11 11 10 11 10 7 5 4 4 5 5 3 3 6 6 6 5 4 3 4 4 5 5 6 5 4 4 1 3
16 16 15 18 17 14 18 21 22 21 23 21 20 20 18 18 18 18 17 15 12 12 11 10 9 9 6 5 4 3 3 3 3 4 4 3 2 1 3 4 3 4 5 4 6 5 4 2 2
18 17 21 20 19 13 21 14 25 25 22 21 19 19 19 19 18 23 24 20 12 14 10 10 10 9 8 6 4 3 4 5 4 3 3 2 2 1 2 2 3 5 6 6 7 7 5 6 6
21 23 23 17 19 18 20 17 20 25 22 21 20 20 21 20 20 18 20 18 18 20 18 14 13 13 11 8 4 2 4 5 5 4 2 1 2 2 4 4 4 6 7 7 9 8 7 6 5
18 22 23 23 19 20 21 19 18 21 21 22 22 23 23 22 19 18 16 15 16 16 16 15 17 18 14 10 5 3 3 2 1 1 1 2 4 5 7 7 9 9 9 10 11 10 8 5 3
22 19 23 17 20 19 22 24 21 17 20 24 25 26 25 24 23 21 19 18 17 15 15 16 16 15 12 8 9 7 6 1 1 2 4 5 6 7 7 9 9 10 9 11 12 13 11 12 7
21 18 21 16 13 13 19 22 17 20 20 23 24 24 25 26 24 22 21 20 20 18 17 18 15 12 12 11 8 9 4 4 4 4 5 7 9 9 8 9 11 10 10 12 11 13 14 10 14
18 18 18 18 13 15 23 16 21 19 18 20 26 28 27 26 23 22 22 21 20 19 18 17 16 15 12 11 10 9 8 9 11 8 8 9 9 10 9 10 11 11 11 11 11 12 12 13 11
16 16 18 17 17 16 24 16 15 24 21 21 26 30 28 27 27 25 24 22 20 20 19 18 17 15 14 14 11 9 11 10 10 11 12 11 10 10 10 10 11 10 11 11 11 11 11 12 12
20 15 14 12 14 16 21 19 18 19 25 24 27 31 31 30 29 26 24 22 21 20 20 20 19 16 14 13 13 11 10 10 10 12 13 14 13 12 11 11 10 10 10 10 11 11 12 13 12
21 15 11 12 12 13 20 18 14 16 20 26 25 32 33 32 30 29 28 26 24 23 22 21 20 18 16 14 12 13 13 13 13 14 14 14 12 12 12 11 9 9 10 9 10 11 12 12 12
24 21 13 20 15 15 16 17 18 20 3 19 27 33 34 32 31 31 30 28 26 24 24 23 22 19 18 16 13 12 12 12 12 11 12 10 11 11 11 11 9 8 8 8 9 10 10 11 12
19 22 23 13 17 13 18 14 2 8 15 15 22 29 32 33 34 33 31 29 27 26 25 24 22 20 19 18 16 15 15 14 14 14 13 13 12 12 10 10 8 8 7 7 8 8 9 11 10
23 21 18 15 10 17 16 22 15 14 15 19 17 23 25 33 34 33 33 31 28 26 24 23 22 21 20 18 17 16 16 16 16 16 14 13 14 12 10 9 8 7 6 6 6 8 9 9 9
20 19 19 17 13 14 13 13 11 15 20 19 20 27 25 29 34 34 33 31 29 26 25 24 23 22 21 20 18 18 17 17 17 16 16 14 14 13 11 9 8 7 6 5 6 7 8 8 9
23 24 25 10 20 11 10 7 5 9 11 15 25 26 25 25 31 34 34 33 31 29 27 26 25 24 22 21 19 19 19 18 17 16 17 16 14 13 11 10 8 6 5 4 4 5 6 7 8
Wind_Direction
269 297 277 258 240 233 257 238 298 103 178 48 135 118 82 43 28 101 141 151 135 145 151 143 133 126 121 121 121 121 118 119 111 103 92 87 82 80 87 100 107 112 112 111 109 109 109 109 108
241 254 240 262 247 239 250 134 178 174 80 154 95 112 107 68 81 120 142 143 151 148 138 149 140 133 127 128 128 125 127 123 115 106 100 93 88 85 88 98 101 102 103 102 103 102 102 105 105
231 229 258 225 233 256 296 120 141 79 127 126 110 80 74 97 109 118 150 145 144 142 161 157 144 140 135 136 139 140 141 137 129 118 105 97 90 86 88 99 110 110 100 87 78 77 76 77 77
218 215 248 254 249 237 290 75 87 134 138 169 138 90 96 105 126 141 153 147 149 144 173 162 148 143 138 142 144 145 149 142 132 115 103 94 93 90 88 92 103 113 113 106 94 82 70 65 51
223 250 240 223 242 106 37 60 154 160 155 177 172 106 110 117 128 139 142 148 145 148 154 156 153 148 147 146 144 143 148 149 142 128 112 101 102 98 96 93 95 101 100 72 35 20 14 1 349
223 238 238 238 226 118 158 174 170 167 132 121 141 110 129 138 137 144 147 146 146 143 151 155 157 154 158 154 154 154 157 161 157 147 126 113 101 92 86 80 74 64 45 14 353 343 339 334 329
239 225 241 243 244 130 156 184 202 165 159 175 144 136 150 150 150 141 146 152 144 140 145 144 150 158 167 164 160 162 164 166 153 130 107 107 99 95 82 61 30 18 9 2 355 349 342 333 327
231 257 243 247 247 171 157 182 189 172 178 140 152 162 172 159 152 157 151 158 162 152 145 146 144 144 162 176 171 171 176 171 160 130 100 87 48 3 348 324 22 9 13 2 352 349 350 348 342
229 252 240 237 236 237 142 182 180 154 154 174 181 156 157 159 152 155 154 154 161 161 154 148 144 144 162 156 168 167 190 180 181 72 15 45 29 360 332 302 305 319 337 336 333 334 338 344 329
226 231 238 247 234 231 153 170 180 173 175 157 163 124 147 150 157 160 159 157 164 166 155 147 145 171 146 130 136 142 116 169 149 172 160 320 238 218 225 298 294 297 308 319 328 326 351 329 344
216 240 233 252 264 182 167 184 177 191 184 172 166 147 151 152 155 159 159 157 159 153 150 156 158 171 133 141 142 139 138 140 206 212 194 223 264 258 3 348 356 296 300 293 298 293 295 308 302
229 224 252 238 199 216 165 201 174 208 221 154 156 159 154 153 154 156 147 148 150 163 175 180 168 149 151 140 160 133 178 173 221 272 266 275 277 280 284 320 320 326 323 307 302 303 305 308 325
213 227 224 253 180 221 198 191 184 131 109 131 146 154 153 153 146 151 153 157 155 177 177 172 169 165 167 177 188 195 225 267 275 281 280 287 299 293 291 291 299 288 305 323 333 321 327 349 295
205 244 186 206 204 201 174 173 143 103 131 138 150 156 158 157 153 150 153 149 152 184 181 175 174 177 180 180 202 224 251 280 297 293 291 289 286 301 341 342 334 339 333 329 333 304 345 295 294
255 203 200 197 192 178 196 138 215 148 154 152 157 160 160 161 155 153 148 141 138 163 163 169 174 181 186 202 213 247 267 326 4 313 303 305 296 317 13 2 -0 348 348 6 357 22 25 283 28
211 212 194 194 169 177 199 195 131 151 156 150 154 160 159 161 163 163 167 164 154 146 153 154 162 162 167 174 155 146 136 84 51 20 353 345 346 8 48 27 360 24 11 20 22 57 63 296 115
206 204 208 171 186 166 209 229 136 156 162 158 163 164 173 175 175 177 175 174 228 225 181 175 170 156 142 142 124 105 100 83 67 54 29 38 35 54 44 22 32 46 34 38 61 59 71 36 71
196 222 201 185 188 191 203 221 154 165 166 165 171 177 179 183 184 180 190 191 192 207 206 207 175 177 153 132 114 124 117 94 76 67 47 58 77 76 76 75 84 74 64 57 68 73 82 83 83
202 207 230 210 167 209 209 205 163 175 175 172 181 182 185 187 179 172 170 170 173 189 190 191 199 191 175 153 117 47 23 81 328 79 110 110 113 108 96 86 80 67 76 73 70 61 73 45 43
242 216 220 206 156 196 214 213 160 177 191 185 184 184 183 178 174 174 175 176 176 179 183 190 186 187 196 209 229 245 211 107 199 108 114 121 121 119 105 103 94 86 68 79 79 87 55 51 66
233 236 216 194 157 211 232 215 174 171 194 192 188 189 183 181 179 181 181 183 183 190 190 188 189 172 164 170 177 179 185 182 169 149 140 133 119 114 113 105 101 89 87 80 80 80 87 53 46
215 223 229 200 173 213 222 223 210 173 201 195 192 194 188 186 187 187 187 188 190 194 190 186 183 183 190 191 195 190 159 153 172 162 148 141 131 121 113 106 100 98 91 89 81 82 81 78 61
225 194 225 212 192 230 197 235 224 185 196 198 197 195 193 192 191 191 190 190 188 186 182 179 181 176 189 200 199 180 181 198 182 167 153 148 142 130 123 106 102 100 96 93 90 87 84 78 72
224 194 218 218 218 228 234 202 228 207 198 198 198 199 197 194 192 193 192 189 186 185 184 181 181 178 175 189 192 192 203 198 182 169 158 151 148 135 120 111 106 104 99 92 88 82 78 75 75
212 189 197 203 212 225 223 218 219 239 202 193 202 200 200 198 193 192 191 189 186 185 185 184 181 181 176 174 181 194 187 185 183 171 164 154 145 138 129 119 112 106 99 91 83 79 72 67 64
206 199 204 201 213 212 223 226 233 218 245 197 212 204 202 199 196 196 193 191 189 186 185 183 183 184 180 177 172 172 179 170 164 158 160 153 157 149 136 125 120 106 98 91 86 76 70 62 56
200 213 216 216 237 226 211 206 267 216 211 211 209 208 200 192 198 197 194 192 191 188 185 183 182 184 181 177 176 176 172 169 165 166 164 161 161 151 144 136 126 107 99 91 83 78 64 55 47
216 210 213 237 224 221 231 201 209 210 231 207 212 206 200 193 196 196 194 193 192 190 186 182 182 184 181 178 177 177 173 169 171 167 164 162 161 161 156 147 139 122 104 88 81 69 58 51 42
209 206 219 229 236 228 227 242 175 184 208 223 210 200 206 195 192 194 194 193 191 188 186 181 179 182 181 181 178 177 174 173 172 169 170 173 168 164 165 158 143 136 117 94 71 63 55 46 30
213 216 213 218 225 216 233 256 125 211 206 213 213 212 201 202 189 193 191 189 189 187 185 181 178 181 182 180 178 177 175 175 172 176 175 176 173 172 171 162 155 146 120 92 78 65 49 39 25
Height
1503 1503 1505 1505 1500 1481 1473 1457 1452 1465 1473 1478 1481 1483 1492 1499 1502 1517 1524 1526 1530 1534 1534 1535 1537 1538 1539 1541 1542 1545 1546 1547 1547 1547 1547 1548 1548 1547 1548 1548 1548 1548 1548 1548 1549 1549 1549 1550 1550
1502 1505 1504 1497 1492 1480 1468 1449 1466 1463 1476 1483 1489 1492 1493 1507 1511 1518 1524 1527 1532 1535 1537 1536 1538 1540 1541 1543 1545 1546 1548 1549 1549 1549 1549 1549 1549 1549 1549 1550 1550 1551 1551 1551 1551 1551 1552 1552 1552
1500 1503 1500 1486 1481 1477 1465 1454 1460 1476 1485 1489 1494 1494 1504 1514 1517 1521 1524 1528 1532 1536 1537 1537 1539 1541 1542 1544 1546 1547 1549 1549 1550 1550 1550 1550 1550 1551 1551 1551 1552 1552 1553 1554 1554 1554 1554 1554 1554
1501 1501 1497 1484 1473 1460 1464 1464 1474 1485 1492 1492 1497 1506 1515 1518 1520 1522 1524 1529 1531 1534 1536 1538 1540 1541 1543 1545 1547 1548 1549 1550 1551 1551 1551 1552 1552 1552 1552 1553 1553 1553 1554 1554 1555 1555 1555 1555 1556
1499 1492 1483 1476 1470 1460 1474 1475 1482 1487 1492 1495 1498 1506 1517 1520 1521 1523 1525 1530 1533 1534 1536 1538 1540 1542 1544 1546 1548 1549 1551 1551 1552 1552 1553 1553 1553 1554 1554 1554 1554 1554 1555 1555 1556 1556 1557 1557 1557
1493 1487 1479 1473 1462 1461 1474 1482 1483 1486 1497 1498 1500 1509 1520 1522 1524 1526 1528 1531 1534 1536 1537 1538 1540 1543 1545 1547 1549 1550 1551 1552 1553 1554 1554 1554 1554 1555 1555 1555 1556 1556 1556 1556 1557 1557 1557 1557 1557
1487 1477 1474 1463 1455 1465 1473 1483 1485 1486 1496 1500 1504 1508 1520 1522 1524 1527 1530 1531 1534 1537 1537 1540 1541 1543 1546 1548 1550 1551 1553 1554 1554 1555 1555 1556 1556 1556 1557 1557 1557 1557 1557 1558 1558 1558 1558 1557 1557
1485 1476 1469 1461 1456 1458 1471 1482 1485 1487 1496 1500 1504 1507 1516 1520 1524 1528 1531 1531 1535 1537 1539 1540 1543 1546 1546 1548 1551 1552 1554 1555 1555 1556 1557 1557 1557 1558 1558 1557 1558 1558 1558 1558 1558 1558 1558 1557 1557
1484 1477 1469 1461 1455 1455 1469 1479 1485 1488 1495 1501 1504 1505 1511 1518 1524 1528 1530 1533 1536 1539 1540 1541 1544 1546 1547 1549 1551 1552 1554 1555 1556 1557 1559 1559 1561 1560 1558 1558 1558 1558 1558 1558 1559 1558 1558 1558 1557
1478 1473 1463 1450 1453 1454 1468 1474 1483 1490 1493 1500 1506 1509 1513 1519 1524 1528 1532 1534 1538 1540 1541 1543 1546 1546 1549 1551 1554 1555 1556 1556 1557 1558 1560 1563 1560 1560 1561 1558 1558 1558 1557 1557 1558 1558 1558 1557 1555
1472 1467 1458 1452 1453 1455 1466 1472 1482 1485 1491 1497 1505 1511 1516 1519 1525 1529 1533 1535 1539 1542 1545 1545 1545 1547 1550 1552 1556 1558 1559 1558 1556 1556 1557 1558 1559 1559 1559 1558 1558 1557 1557 1556 1556 1556 1556 1556 1556
1468 1464 1457 1452 1458 1464 1463 1472 1481 1482 1486 1492 1505 1513 1517 1520 1525 1529 1532 1537 1540 1541 1542 1543 1543 1545 1548 1552 1553 1555 1555 1556 1555 1555 1557 1557 1557 1557 1557 1558 1558 1557 1556 1555 1555 1555 1554 1554 1553
1464 1459 1460 1461 1465 1467 1466 1467 1476 1487 1490 1497 1508 1514 1518 1522 1526 1531 1535 1538 1539 1541 1542 1543 1544 1545 1547 1549 1551 1552 1554 1555 1555 1555 1555 1555 1556 1556 1556 1556 1556 1555 1555 1555 1555 1555 1556 1555 1552
1462 1459 1463 1467 1468 1466 1465 1471 1478 1495 1499 1504 1509 1514 1519 1523 1528 1532 1536 1538 1540 1541 1543 1543 1545 1547 1548 1549 1551 1553 1553 1554 1555 1554 1554 1554 1554 1554 1555 1556 1556 1554 1554 1553 1553 1552 1554 1554 1552
1460 1459 1463 1465 1464 1466 1470 1476 1484 1496 1501 1505 1509 1515 1520 1524 1527 1531 1534 1538 1541 1540 1542 1543 1545 1547 1548 1549 1551 1553 1553 1553 1554 1553 1552 1552 1551 1552 1553 1554 1553 1552 1551 1552 1551 1553 1554 1554 1553
1462 1461 1466 1459 1464 1469 1470 1478 1485 1497 1502 1505 1510 1515 1520 1524 1526 1527 1532 1535 1539 1541 1541 1541 1545 1546 1548 1549 1551 1552 1552 1552 1553 1553 1552 1551 1551 1551 1553 1553 1552 1551 1551 1550 1550 1552 1555 1553 1552
1456 1458 1456 1454 1461 1467 1469 1464 1476 1494 1502 1507 1511 1515 1520 1522 1523 1524 1527 1529 1536 1540 1540 1542 1544 1546 1547 1550 1550 1552 1552 1551 1553 1553 1552 1551 1551 1552 1551 1552 1552 1552 1551 1550 1550 1552 1555 1553 1553
1452 1453 1447 1448 1461 1463 1469 1461 1477 1490 1497 1505 1511 1514 1517 1519 1522 1524 1526 1528 1531 1535 1538 1538 1541 1544 1548 1549 1550 1553 1552 1551 1553 1552 1552 1552 1552 1553 1552 1552 1552 1552 1552 1551 1551 1552 1553 1556 1556
1435 1442 1438 1438 1446 1459 1460 1461 1474 1483 1491 1498 1506 1510 1513 1516 1520 1523 1526 1528 1531 1534 1536 1538 1541 1544 1545 1547 1548 1550 1551 1551 1552 1552 1552 1552 1553 1553 1553 1553 1553 1553 1553 1552 1553 1554 1553 1554 1554
1432 1435 1441 1432 1439 1457 1454 1455 1458 1478 1484 1488 1497 1501 1505 1511 1516 1521 1524 1528 1532 1534 1534 1537 1541 1543 1543 1545 1544 1547 1553 1551 1554 1554 1553 1554 1553 1553 1555 1554 1554 1555 1555 1553 1553 1554 1555 1554 1553
1436 1437 1439 1438 1451 1456 1451 1451 1456 1468 1480 1484 1492 1495 1500 1505 1512 1518 1522 1526 1530 1533 1535 1536 1539 1542 1545 1545 1545 1548 1549 1550 1553 1554 1555 1555 1554 1555 1558 1557 1556 1556 1557 1555 1555 1554 1556 1557 1555
1442 1436 1435 1435 1453 1462 1452 1455 1447 1457 1474 1478 1485 1488 1493 1501 1509 1515 1519 1523 1527 1531 1534 1536 1538 1540 1543 1544 1544 1547 1550 1553 1552 1553 1553 1556 1557 1557 1560 1558 1557 1558 1558 1557 1558 1556 1556 1557 1558
1437 1435 1438 1435 1450 1451 1446 1458 1435 1445 1463 1470 1476 1482 1488 1495 1503 1509 1514 1519 1524 1528 1531 1535 1537 1539 1541 1543 1545 1546 1548 1550 1552 1553 1553 1557 1559 1559 1561 1560 1559 1559 1559 1561 1560 1559 1559 1558 1558
1435 1436 1442 1440 1445 1460 1441 1447 1449 1436 1447 1459 1469 1476 1483 1489 1498 1505 1512 1517 1521 1525 1528 1531 1535 1537 1539 1541 1544 1545 1548 1550 1552 1552 1555 1556 1559 1560 1560 1561 1563 1562 1562 1563 1562 1562 1561 1561 1562
1435 1438 1457 1461 1456 1455 1436 1438 1440 1433 1433 1444 1457 1468 1476 1483 1491 1499 1506 1511 1516 1521 1525 1529 1533 1536 1538 1541 1542 1545 1547 1549 1551 1554 1556 1558 1559 1562 1562 1561 1564 1566 1563 1565 1565 1563 1564 1563 1563
1431 1435 1441 1458 1452 1443 1429 1438 1434 1431 1433 1440 1448 1457 1467 1477 1486 1493 1500 1507 1512 1517 1522 1526 1530 1534 1536 1539 1542 1544 1546 1549 1551 1554 1557 1559 1561 1562 1561 1562 1566 1566 1566 1567 1566 1565 1566 1565 1563
1431 1430 1423 1432 1429 1434 1423 1431 1430 1429 1433 1442 1445 1449 1456 1469 1479 1487 1495 1503 1509 1513 1518 1523 1527 1532 1535 1537 1540 1543 1546 1548 1552 1555 1558 1559 1559 1561 1562 1563 1566 1566 1570 1569 1567 1567 1566 1565 1565
1418 1424 1438 1428 1450 1446 1423 1422 1433 1437 1438 1436 1441 1445 1451 1461 1473 1483 1490 1497 1505 1510 1515 1519 1524 1529 1532 1535 1538 1542 1545 1548 1550 1553 1556 1558 1558 1560 1563 1564 1565 1566 1569 1570 1569 1567 1566 1566 1566
1419 1423 1423 1426 1426 1439 1438 1423 1407 1423 1429 1435 1436 1443 1449 1454 1466 1478 1485 1494 1501 1507 1512 1516 1521 1526 1530 1533 1536 1540 1543 1546 1549 1551 1553 1556 1558 1560 1563 1565 1565 1567 1568 1569 1569 1568 1567 1566 1567
1409 1416 1420 1436 1438 1425 1433 1432 1409 1418 1422 1428 1431 1436 1443 1452 1462 1473 1481 1490 1497 1503 1508 1512 1517 1522 1526 1530 1534 1537 1541 1544 1547 1550 1552 1555 1558 1560 1563 1565 1566 1567 1567 1568 1569 1570 1567 1567 1567